STARLINK-2315, 47789

Orbit data source: Space-Track

STARLINK-2315, 47789 is a payload satellite owned by SpaceX/Seattle (US) in LEO that was launched on Thu, 11 Mar 2021 UTC via an FALCON 9 launch vehicle from the Air Force Eastern Test Range (AFETR). Payload-class satellites include a variety of spacecraft equipped with specific instruments for various scientific and technological missions. These include communications satellites like Starlink; space stations such as the ISS; scientific satellites like the Hubble; Earth observation satellites from companies like Planet Labs, Umbra, and HawkEye 360; GPS; miniature CubeSats for education and research; and military/defense satellites.

Loading next visibility...
Identifier
47789, 2021-018C
Orbit
LEO
Country
Flag of USUS
Related business
Manufacturer
SpaceX/Seattle
Mission
Operational Commercial Communications
Bus & Motor
STARLINK, Unknown motor
Mass
260 kg wet, ~248 kg dry
Launch date (UTC)
2021-03-11 (5 years ago)
Launch vehicle
FALCON 9
Launch site
Air Force Eastern Test Range (AFETR)
Object type
Payload
Rocket body
Debris
Shape & HBR
Box + 1 Pan, 10.1 m
Radar Cross Section
13.562 m², Large (>1 m²)

Expand to show TLE details & history
Last TLE update: 7 hours ago

TLE from 7 hours ago
0 STARLINK-2315
1 47789U 21018C   26120.16667823  .01138073  00000-0  42740-1 0  9998
2 47789  53.1257 359.7864 0001042  95.6670 239.1905 15.24020871  5826
Epoch: 2026-04-30T04:00Z
TLE epoch observation values (Epoch: 2026-04-30T04:00:00.999Z)
Latitude
-20.05876°
Longitude
65.85894°
Altitude
499.665 km
Speed
7.615 km/s
True Right ascension
22h 55m 55s
True Declination
-19° 56' 39"
Sunlit
Object was in daylight at epoch
Visualization orbit readout
Latitude
Unknown
Longitude
Unknown
Altitude
Unknown
Speed
Unknown
Apparent Right ascension
Unknown
Apparent Declination
Unknown
Sunlit
N/A
Visualization observer readout
Local Sidereal Time
19:00:35
Azimuth
Unknown
Elevation
Unknown
Doppler factor
Unknown
Orbital elements
Apogee altitude
494.705 km
Perigee altitude
493.272 km
Semi-major axis
6,872.125 km
Eccentricity
0.0001
Inclination
53.1257°
RAAN
359.7864°
Arg. of periapsis
95.667°
True anomaly
239.18025°
Mean anomaly
239.1905°
Eccentric anomaly
239.18537°
Mean motion
3.80984 °/min
Orbital period
94.49 mins
BSTAR
0.04274
Loading maneuver chart data...
Computing Atmospheric mass density...
Loading historical data...
Loading historical data...
Loading historical data...
Loading historical data...
Loading historical data...
Loading historical data...
Loading historical data...

Documentation

Showing up to 5 results
|